TAM3028 SBGL-SBFI

Flight info

Callsign TAM3028
Flight time 2h 12m
Altitude 38000
Route NAXOP UZ45 RAXIT DCT DIDOM
Aircraft A20N/M-SDE2E3FGHIRWXY/LB1

Departure

Time 2026-04-21 01:33
Airport Rio Galeão – Tom Jobim International Airport (SBGL)

Arrival

Time 2026-04-21 03:46
Airport Cataratas International Airport (SBFI)
Time Latitude Longitude Altitude Speed Heading
2026-04-21 00:34 -22.81455 -43.24821 21 ft 0 kts 72°
2026-04-21 01:18 -22.81456 -43.24826 21 ft 2 kts 72°
2026-04-21 01:18 -22.81462 -43.24845 24 ft 3 kts 72°
2026-04-21 01:19 -22.81468 -43.24865 23 ft 3 kts 71°
2026-04-21 01:19 -22.81476 -43.24882 24 ft 3 kts 27°
2026-04-21 01:19 -22.81492 -43.24884 21 ft 3 kts 335°
2026-04-21 01:19 -22.81504 -43.24878 23 ft 1 kts 330°
2026-04-21 01:20 -22.81519 -43.24868 23 ft 3 kts 330°
2026-04-21 01:20 -22.81537 -43.24858 22 ft 3 kts 330°
2026-04-21 01:20 -22.81554 -43.24847 25 ft 3 kts 330°
2026-04-21 01:20 -22.81563 -43.24841 21 ft 0 kts 330°
2026-04-21 01:25 -22.81521 -43.24883 21 ft 11 kts 306°
2026-04-21 01:25 -22.81459 -43.24993 21 ft 18 kts 299°
2026-04-21 01:25 -22.81404 -43.25094 21 ft 18 kts 303°
2026-04-21 01:25 -22.81363 -43.25136 21 ft 4 kts 324°
2026-04-21 01:26 -22.81337 -43.25169 23 ft 7 kts 307°
2026-04-21 01:26 -22.81303 -43.25223 21 ft 10 kts 304°
2026-04-21 01:26 -22.81255 -43.25293 21 ft 13 kts 314°
2026-04-21 01:26 -22.81168 -43.25359 21 ft 18 kts 334°
2026-04-21 01:27 -22.81049 -43.25384 21 ft 6 kts 359°
2026-04-21 01:27 -22.80987 -43.25379 21 ft 14 kts
2026-04-21 01:27 -22.80930 -43.25464 26 ft 15 kts 291°
2026-04-21 01:27 -22.80886 -43.25558 27 ft 15 kts 305°
2026-04-21 01:28 -22.80788 -43.25555 23 ft 17 kts 37°
2026-04-21 01:28 -22.80676 -43.25469 22 ft 23 kts 36°
2026-04-21 01:28 -22.80620 -43.25425 28 ft 12 kts 36°
2026-04-21 01:28 -22.80577 -43.25388 30 ft 0 kts 37°
2026-04-21 01:29 -22.80516 -43.25375 29 ft 11 kts 341°
2026-04-21 01:29 -22.80470 -43.25408 28 ft 5 kts 327°
2026-04-21 01:29 -22.80450 -43.25418 28 ft 5 kts 338°
2026-04-21 01:29 -22.80404 -43.25445 28 ft 10 kts 322°
2026-04-21 01:30 -22.80342 -43.25490 27 ft 10 kts 326°
2026-04-21 01:30 -22.80335 -43.25495 27 ft 0 kts 327°
2026-04-21 01:31 -22.80300 -43.25514 28 ft 10 kts 341°
2026-04-21 01:31 -22.80222 -43.25488 25 ft 12 kts 37°
2026-04-21 01:31 -22.80166 -43.25436 26 ft 2 kts 75°
2026-04-21 01:31 -22.80164 -43.25418 28 ft 0 kts 77°
2026-04-21 01:32 -22.80123 -43.25260 26 ft 57 kts 73°
2026-04-21 01:32 -22.79953 -43.24606 33 ft 119 kts 75°
2026-04-21 01:32 -22.79685 -43.23565 26 ft 165 kts 74°
2026-04-21 01:33 -22.79323 -43.22308 272 ft 183 kts 71°
2026-04-21 01:33 -22.78910 -43.20954 787 ft 189 kts 71°
2026-04-21 01:33 -22.78500 -43.19583 1349 ft 196 kts 72°
2026-04-21 01:33 -22.78096 -43.18098 1714 ft 216 kts 75°
2026-04-21 01:34 -22.77738 -43.16458 2095 ft 235 kts 81°
2026-04-21 01:34 -22.77496 -43.14655 2658 ft 244 kts 83°
2026-04-21 01:34 -22.77237 -43.12825 3434 ft 246 kts 82°
2026-04-21 01:34 -22.76920 -43.10992 4240 ft 251 kts 80°
2026-04-21 01:35 -22.76552 -43.09119 5119 ft 256 kts 79°
2026-04-21 01:35 -22.76153 -43.07212 5732 ft 262 kts 78°
2026-04-21 01:35 -22.75758 -43.05300 5953 ft 263 kts 83°
2026-04-21 01:35 -22.75904 -43.03360 6022 ft 260 kts 112°
2026-04-21 01:36 -22.76888 -43.01739 6021 ft 254 kts 142°
2026-04-21 01:36 -22.78339 -43.00729 6019 ft 252 kts 153°
2026-04-21 01:36 -22.79896 -42.99789 6018 ft 251 kts 153°
2026-04-21 01:36 -22.81425 -42.98860 6016 ft 251 kts 153°
2026-04-21 01:37 -22.82931 -42.97926 6018 ft 251 kts 153°
2026-04-21 01:37 -22.84543 -42.97247 6022 ft 247 kts 175°
2026-04-21 01:37 -22.86240 -42.97465 6207 ft 248 kts 204°
2026-04-21 01:37 -22.87665 -42.98497 6902 ft 253 kts 220°
2026-04-21 01:38 -22.89082 -42.99734 7560 ft 268 kts 219°
2026-04-21 01:38 -22.90563 -43.01000 8484 ft 272 kts 218°
2026-04-21 01:38 -22.92056 -43.02274 9410 ft 276 kts 218°
2026-04-21 01:38 -22.93582 -43.03580 10322 ft 280 kts 218°
2026-04-21 01:39 -22.95166 -43.04940 10730 ft 303 kts 218°
2026-04-21 01:39 -22.96884 -43.06418 11004 ft 327 kts 218°
2026-04-21 01:39 -22.98700 -43.07984 11575 ft 337 kts 218°
2026-04-21 01:39 -23.00547 -43.09581 12347 ft 342 kts 218°
2026-04-21 01:40 -23.02370 -43.11221 13085 ft 348 kts 224°
2026-04-21 01:40 -23.03820 -43.13359 13826 ft 355 kts 237°
2026-04-21 01:40 -23.05094 -43.15695 14474 ft 360 kts 238°
2026-04-21 01:40 -23.06340 -43.18038 15136 ft 365 kts 238°
2026-04-21 01:41 -23.07629 -43.20470 15790 ft 369 kts 238°
2026-04-21 01:41 -23.08916 -43.22885 16433 ft 374 kts 238°
2026-04-21 01:41 -23.10231 -43.25344 17055 ft 379 kts 238°
2026-04-21 01:41 -23.11565 -43.27835 17663 ft 383 kts 238°
2026-04-21 01:42 -23.12917 -43.30355 18269 ft 388 kts 238°
2026-04-21 01:42 -23.14283 -43.32906 18826 ft 391 kts 238°
2026-04-21 01:42 -23.15654 -43.35465 19403 ft 393 kts 238°
2026-04-21 01:42 -23.17020 -43.38016 19969 ft 396 kts 238°
2026-04-21 01:43 -23.18406 -43.40607 20514 ft 398 kts 238°
2026-04-21 01:43 -23.19803 -43.43219 21067 ft 401 kts 238°
2026-04-21 01:43 -23.21205 -43.45842 21618 ft 404 kts 238°
2026-04-21 01:43 -23.22635 -43.48517 22166 ft 407 kts 238°
2026-04-21 01:44 -23.24065 -43.51193 22707 ft 410 kts 238°
2026-04-21 01:44 -23.25433 -43.53755 23212 ft 413 kts 238°
2026-04-21 01:44 -23.26815 -43.56346 23710 ft 415 kts 238°
2026-04-21 01:44 -23.28280 -43.59093 24170 ft 417 kts 238°
2026-04-21 01:45 -23.29544 -43.61844 24634 ft 421 kts 248°
2026-04-21 01:45 -23.30461 -43.64899 25089 ft 423 kts 250°
2026-04-21 01:45 -23.31307 -43.67835 25512 ft 425 kts 251°
2026-04-21 01:45 -23.32190 -43.70906 25958 ft 427 kts 250°
2026-04-21 01:46 -23.33088 -43.74012 26392 ft 429 kts 250°
2026-04-21 01:46 -23.33988 -43.77109 26823 ft 431 kts 250°
2026-04-21 01:46 -23.34898 -43.80232 27241 ft 433 kts 250°
2026-04-21 01:46 -23.35817 -43.83380 27656 ft 435 kts 250°
2026-04-21 01:47 -23.36735 -43.86531 28049 ft 437 kts 250°
2026-04-21 01:47 -23.37649 -43.89666 28442 ft 439 kts 250°
2026-04-21 01:47 -23.38557 -43.92789 28826 ft 441 kts 250°
2026-04-21 01:47 -23.39490 -43.95999 29202 ft 443 kts 250°
2026-04-21 01:48 -23.40424 -43.99212 29566 ft 445 kts 250°
2026-04-21 01:48 -23.41360 -44.02439 29930 ft 447 kts 250°
2026-04-21 01:48 -23.42301 -44.05684 30283 ft 449 kts 250°
2026-04-21 01:48 -23.43249 -44.08950 30598 ft 452 kts 250°
2026-04-21 01:49 -23.44184 -44.12170 30913 ft 454 kts 250°
2026-04-21 01:49 -23.45137 -44.15461 31247 ft 455 kts 250°
2026-04-21 01:49 -23.46091 -44.18759 31643 ft 455 kts 250°
2026-04-21 01:49 -23.47042 -44.22055 32069 ft 454 kts 250°
2026-04-21 01:50 -23.47987 -44.25334 32505 ft 453 kts 250°
2026-04-21 01:50 -23.48936 -44.28627 32931 ft 452 kts 250°
2026-04-21 01:50 -23.49866 -44.31858 33341 ft 451 kts 250°
2026-04-21 01:50 -23.50806 -44.35126 33746 ft 450 kts 250°
2026-04-21 01:51 -23.51743 -44.38384 34127 ft 449 kts 250°
2026-04-21 01:51 -23.52666 -44.41600 34467 ft 447 kts 250°
2026-04-21 01:51 -23.53596 -44.44840 34846 ft 445 kts 250°
2026-04-21 01:51 -23.54513 -44.48040 35221 ft 442 kts 250°
2026-04-21 01:52 -23.55430 -44.51244 35565 ft 440 kts 250°
2026-04-21 01:52 -23.57226 -44.57523 36237 ft 436 kts 250°
2026-04-21 01:52 -23.58135 -44.60707 36577 ft 434 kts 250°
2026-04-21 01:53 -23.58898 -44.63380 36828 ft 433 kts 250°
2026-04-21 01:53 -23.59699 -44.66190 37105 ft 431 kts 250°
2026-04-21 01:53 -23.60559 -44.69209 37388 ft 430 kts 250°
2026-04-21 01:53 -23.61452 -44.72343 37686 ft 428 kts 250°
2026-04-21 01:54 -23.62334 -44.75442 37957 ft 427 kts 250°
2026-04-21 01:54 -23.63215 -44.78541 38095 ft 426 kts 250°
2026-04-21 01:54 -23.64089 -44.81613 38113 ft 424 kts 250°
2026-04-21 01:55 -23.65827 -44.87736 38112 ft 424 kts 250°
2026-04-21 01:55 -23.67571 -44.93889 38110 ft 424 kts 250°
2026-04-21 01:56 -23.69314 -45.00051 38112 ft 423 kts 250°
2026-04-21 01:56 -23.71040 -45.06162 38114 ft 423 kts 250°
2026-04-21 01:57 -23.72482 -45.11279 38117 ft 423 kts 250°
2026-04-21 01:57 -23.74208 -45.17410 38117 ft 423 kts 250°
2026-04-21 01:58 -23.75916 -45.23589 38117 ft 424 kts 252°
2026-04-21 01:58 -23.77286 -45.29826 38112 ft 424 kts 253°
2026-04-21 01:59 -23.78676 -45.36099 38118 ft 424 kts 253°
2026-04-21 01:59 -23.80053 -45.42340 38119 ft 424 kts 253°
2026-04-21 02:00 -23.81431 -45.48615 38125 ft 424 kts 253°
2026-04-21 02:00 -23.82801 -45.54866 38123 ft 425 kts 253°
2026-04-21 02:01 -23.84175 -45.61149 38124 ft 424 kts 254°
2026-04-21 02:01 -23.85540 -45.67402 38123 ft 424 kts 254°
2026-04-21 02:02 -23.86913 -45.73677 38126 ft 423 kts 254°
2026-04-21 02:02 -23.88273 -45.79905 38124 ft 423 kts 254°
2026-04-21 02:03 -23.89640 -45.86177 38114 ft 423 kts 254°
2026-04-21 02:03 -23.90990 -45.92388 38111 ft 422 kts 254°
2026-04-21 02:04 -23.92347 -45.98643 38105 ft 422 kts 254°
2026-04-21 02:04 -23.93699 -46.04892 38104 ft 421 kts 254°
2026-04-21 02:05 -23.95043 -46.11111 38104 ft 421 kts 254°
2026-04-21 02:05 -23.96381 -46.17317 38103 ft 421 kts 254°
2026-04-21 02:06 -23.97717 -46.23530 38103 ft 420 kts 254°
2026-04-21 02:06 -23.99367 -46.29634 38104 ft 418 kts 248°
2026-04-21 02:07 -24.01300 -46.35646 38104 ft 418 kts 249°
2026-04-21 02:07 -24.03218 -46.41674 38104 ft 419 kts 249°
2026-04-21 02:08 -24.05121 -46.47657 38109 ft 419 kts 249°
2026-04-21 02:08 -24.07038 -46.53689 38112 ft 419 kts 249°
2026-04-21 02:09 -24.08954 -46.59726 38110 ft 419 kts 249°
2026-04-21 02:09 -24.10861 -46.65741 38108 ft 419 kts 249°
2026-04-21 02:10 -24.12773 -46.71785 38115 ft 419 kts 249°
2026-04-21 02:10 -24.14668 -46.77784 38120 ft 419 kts 249°
2026-04-21 02:11 -24.16576 -46.83831 38125 ft 419 kts 249°
2026-04-21 02:11 -24.18479 -46.89874 38120 ft 419 kts 249°
2026-04-21 02:12 -24.20384 -46.95932 38123 ft 419 kts 249°
2026-04-21 02:12 -24.22270 -47.01942 38122 ft 419 kts 249°
2026-04-21 02:13 -24.24164 -47.07983 38121 ft 419 kts 249°
2026-04-21 02:13 -24.26045 -47.13994 38118 ft 419 kts 249°
2026-04-21 02:14 -24.27861 -47.20067 38119 ft 419 kts 250°
2026-04-21 02:14 -24.29614 -47.26157 38119 ft 418 kts 250°
2026-04-21 02:15 -24.31364 -47.32199 38116 ft 418 kts 250°
2026-04-21 02:15 -24.33135 -47.38293 38115 ft 418 kts 250°
2026-04-21 02:16 -24.34888 -47.44333 38112 ft 417 kts 250°
2026-04-21 02:16 -24.36647 -47.50404 38106 ft 417 kts 251°
2026-04-21 02:17 -24.38396 -47.56453 38104 ft 416 kts 251°
2026-04-21 02:17 -24.40146 -47.62512 38104 ft 416 kts 251°
2026-04-21 02:18 -24.41856 -47.68532 38101 ft 416 kts 253°
2026-04-21 02:18 -24.43057 -47.74774 38097 ft 416 kts 257°
2026-04-21 02:19 -24.44159 -47.80972 38094 ft 416 kts 257°
2026-04-21 02:19 -24.45277 -47.87221 38095 ft 416 kts 257°
2026-04-21 02:20 -24.46384 -47.93427 38097 ft 416 kts 257°
2026-04-21 02:20 -24.47495 -47.99675 38101 ft 416 kts 257°
2026-04-21 02:21 -24.48577 -48.05789 38102 ft 416 kts 257°
2026-04-21 02:21 -24.49678 -48.12031 38107 ft 416 kts 257°
2026-04-21 02:22 -24.50779 -48.18290 38110 ft 416 kts 257°
2026-04-21 02:22 -24.51871 -48.24505 38117 ft 416 kts 257°
2026-04-21 02:23 -24.52966 -48.30761 38125 ft 417 kts 257°
2026-04-21 02:23 -24.54052 -48.36980 38131 ft 417 kts 257°
2026-04-21 02:24 -24.55143 -48.43242 38132 ft 417 kts 257°
2026-04-21 02:24 -24.56230 -48.49503 38137 ft 417 kts 257°
2026-04-21 02:25 -24.57318 -48.55780 38137 ft 417 kts 257°
2026-04-21 02:25 -24.58394 -48.61996 38142 ft 416 kts 257°
2026-04-21 02:26 -24.59475 -48.68269 38136 ft 416 kts 257°
2026-04-21 02:26 -24.60529 -48.74395 38139 ft 416 kts 257°
2026-04-21 02:27 -24.61598 -48.80631 38139 ft 416 kts 257°
2026-04-21 02:27 -24.62667 -48.86880 38136 ft 416 kts 257°
2026-04-21 02:28 -24.63730 -48.93107 38133 ft 415 kts 258°
2026-04-21 02:28 -24.64793 -48.99349 38129 ft 415 kts 258°
2026-04-21 02:29 -24.65848 -49.05561 38125 ft 415 kts 258°
2026-04-21 02:29 -24.66906 -49.11810 38127 ft 415 kts 258°
2026-04-21 02:30 -24.67960 -49.18053 38129 ft 415 kts 258°
2026-04-21 02:30 -24.69007 -49.24267 38127 ft 415 kts 258°
2026-04-21 02:31 -24.70055 -49.30504 38130 ft 414 kts 258°
2026-04-21 02:31 -24.71101 -49.36748 38126 ft 415 kts 258°
2026-04-21 02:32 -24.72147 -49.43004 38126 ft 415 kts 258°
2026-04-21 02:32 -24.73182 -49.49214 38127 ft 415 kts 258°
2026-04-21 02:33 -24.74222 -49.55471 38128 ft 415 kts 258°
2026-04-21 02:33 -24.75253 -49.61686 38131 ft 415 kts 258°
2026-04-21 02:34 -24.76293 -49.67976 38132 ft 415 kts 258°
2026-04-21 02:34 -24.77320 -49.74201 38137 ft 415 kts 258°
2026-04-21 02:35 -24.78348 -49.80456 38137 ft 415 kts 258°
2026-04-21 02:35 -24.79378 -49.86731 38138 ft 415 kts 258°
2026-04-21 02:36 -24.80397 -49.92959 38141 ft 415 kts 258°
2026-04-21 02:36 -24.81420 -49.99231 38137 ft 415 kts 258°
2026-04-21 02:37 -24.82434 -50.05467 38137 ft 415 kts 258°
2026-04-21 02:37 -24.83451 -50.11730 38135 ft 414 kts 258°
2026-04-21 02:38 -24.84459 -50.17963 38135 ft 414 kts 258°
2026-04-21 02:38 -24.85467 -50.24203 38133 ft 414 kts 258°
2026-04-21 02:39 -24.86467 -50.30420 38124 ft 414 kts 258°
2026-04-21 02:39 -24.87472 -50.36682 38122 ft 413 kts 258°
2026-04-21 02:40 -24.88464 -50.42879 38125 ft 413 kts 259°
2026-04-21 02:40 -24.89459 -50.49111 38115 ft 412 kts 259°
2026-04-21 02:41 -24.90446 -50.55311 38114 ft 412 kts 259°
2026-04-21 02:41 -24.91431 -50.61518 38111 ft 412 kts 259°
2026-04-21 02:42 -24.92415 -50.67734 38111 ft 411 kts 259°
2026-04-21 02:42 -24.93398 -50.73959 38114 ft 411 kts 259°
2026-04-21 02:43 -24.94211 -50.79118 38117 ft 410 kts 259°
2026-04-21 02:43 -24.95179 -50.85283 38117 ft 410 kts 259°
2026-04-21 02:44 -24.96150 -50.91482 38121 ft 409 kts 259°
2026-04-21 02:44 -24.97113 -50.97648 38120 ft 409 kts 259°
2026-04-21 02:45 -24.98071 -51.03801 38115 ft 408 kts 259°
2026-04-21 02:45 -24.99033 -51.09991 38116 ft 407 kts 259°
2026-04-21 02:46 -24.99980 -51.16104 38110 ft 405 kts 259°
2026-04-21 02:46 -25.00929 -51.22249 38108 ft 404 kts 259°
2026-04-21 02:47 -25.01864 -51.28319 38098 ft 403 kts 259°
2026-04-21 02:47 -25.02796 -51.34389 38097 ft 402 kts 259°
2026-04-21 02:48 -25.03720 -51.40419 38091 ft 402 kts 259°
2026-04-21 02:48 -25.04647 -51.46493 38091 ft 401 kts 259°
2026-04-21 02:49 -25.05569 -51.52548 38094 ft 401 kts 259°
2026-04-21 02:49 -25.06492 -51.58622 38090 ft 401 kts 259°
2026-04-21 02:50 -25.07418 -51.64737 38093 ft 402 kts 259°
2026-04-21 02:50 -25.08335 -51.70808 38100 ft 402 kts 260°
2026-04-21 02:51 -25.09216 -51.76662 38104 ft 403 kts 260°
2026-04-21 02:51 -25.10148 -51.82865 38105 ft 404 kts 260°
2026-04-21 02:52 -25.11065 -51.88989 38107 ft 405 kts 260°
2026-04-21 02:52 -25.11982 -51.95130 38105 ft 405 kts 260°
2026-04-21 02:53 -25.12891 -52.01241 38102 ft 405 kts 260°
2026-04-21 02:53 -25.13795 -52.07327 38092 ft 403 kts 260°
2026-04-21 02:54 -25.14707 -52.13494 38087 ft 403 kts 260°
2026-04-21 02:54 -25.15608 -52.19602 38083 ft 403 kts 260°
2026-04-21 02:55 -25.16504 -52.25689 38074 ft 403 kts 260°
2026-04-21 02:55 -25.17401 -52.31806 38071 ft 403 kts 261°
2026-04-21 02:56 -25.18282 -52.37828 38070 ft 403 kts 261°
2026-04-21 02:56 -25.19621 -52.47015 38062 ft 403 kts 261°
2026-04-21 02:57 -25.20508 -52.53121 38062 ft 404 kts 261°
2026-04-21 02:57 -25.21397 -52.59261 38071 ft 404 kts 261°
2026-04-21 02:58 -25.22272 -52.65330 38057 ft 401 kts 261°
2026-04-21 02:58 -25.23146 -52.71397 38048 ft 401 kts 261°
2026-04-21 02:59 -25.24018 -52.77477 38046 ft 401 kts 261°
2026-04-21 02:59 -25.24889 -52.83575 38050 ft 401 kts 261°
2026-04-21 03:00 -25.25754 -52.89634 38046 ft 401 kts 261°
2026-04-21 03:00 -25.26622 -52.95742 38054 ft 401 kts 261°
2026-04-21 03:01 -25.27483 -53.01796 37950 ft 397 kts 261°
2026-04-21 03:01 -25.27909 -53.04801 37467 ft 396 kts 261°
2026-04-21 03:01 -25.28338 -53.07825 36699 ft 400 kts 261°
2026-04-21 03:02 -25.28766 -53.10850 35823 ft 405 kts 262°
2026-04-21 03:02 -25.29206 -53.13960 34897 ft 412 kts 262°
2026-04-21 03:02 -25.29645 -53.17081 34017 ft 419 kts 262°
2026-04-21 03:02 -25.29968 -53.20347 33053 ft 423 kts 267°
2026-04-21 03:03 -25.30161 -53.23620 32160 ft 427 kts 266°
2026-04-21 03:03 -25.30379 -53.26879 31267 ft 430 kts 266°
2026-04-21 03:03 -25.30610 -53.30198 30383 ft 434 kts 266°
2026-04-21 03:03 -25.30838 -53.33519 29629 ft 433 kts 266°
2026-04-21 03:04 -25.31062 -53.36830 29030 ft 427 kts 266°
2026-04-21 03:04 -25.31275 -53.40041 28419 ft 422 kts 265°
2026-04-21 03:04 -25.31488 -53.43271 27797 ft 417 kts 265°
2026-04-21 03:04 -25.31696 -53.46458 27189 ft 413 kts 265°
2026-04-21 03:05 -25.31902 -53.49621 26596 ft 409 kts 265°
2026-04-21 03:05 -25.32101 -53.52703 25987 ft 405 kts 265°
2026-04-21 03:05 -25.32302 -53.55803 25397 ft 402 kts 265°
2026-04-21 03:05 -25.32491 -53.58737 24851 ft 399 kts 265°
2026-04-21 03:06 -25.32687 -53.61797 24271 ft 396 kts 265°
2026-04-21 03:06 -25.32881 -53.64824 23713 ft 393 kts 265°
2026-04-21 03:06 -25.33071 -53.67789 23063 ft 391 kts 265°
2026-04-21 03:06 -25.33265 -53.70789 22406 ft 388 kts 265°
2026-04-21 03:07 -25.33456 -53.73754 21760 ft 385 kts 266°
2026-04-21 03:07 -25.33643 -53.76691 21156 ft 383 kts 266°
2026-04-21 03:07 -25.33829 -53.79609 20567 ft 380 kts 266°
2026-04-21 03:07 -25.34012 -53.82499 19981 ft 377 kts 267°
2026-04-21 03:08 -25.34196 -53.85409 19389 ft 375 kts 267°
2026-04-21 03:08 -25.34377 -53.88274 18860 ft 372 kts 267°
2026-04-21 03:08 -25.34554 -53.91097 18319 ft 369 kts 268°
2026-04-21 03:08 -25.34731 -53.93926 17692 ft 367 kts 268°
2026-04-21 03:09 -25.34905 -53.96725 17131 ft 363 kts 268°
2026-04-21 03:09 -25.35074 -53.99470 16586 ft 359 kts 268°
2026-04-21 03:09 -25.35244 -54.02219 16046 ft 356 kts 268°
2026-04-21 03:09 -25.35413 -54.04944 15514 ft 355 kts 268°
2026-04-21 03:10 -25.35581 -54.07670 14993 ft 353 kts 268°
2026-04-21 03:10 -25.35746 -54.10370 14485 ft 350 kts 268°
2026-04-21 03:10 -25.35911 -54.13055 13976 ft 348 kts 268°
2026-04-21 03:10 -25.36073 -54.15728 13434 ft 348 kts 269°
2026-04-21 03:11 -25.36232 -54.18361 12888 ft 346 kts 269°
2026-04-21 03:11 -25.36392 -54.21022 12339 ft 343 kts 269°
2026-04-21 03:11 -25.36551 -54.23649 11810 ft 341 kts 269°
2026-04-21 03:11 -25.36707 -54.26260 11289 ft 342 kts 268°
2026-04-21 03:12 -25.36863 -54.28860 10784 ft 341 kts 268°
2026-04-21 03:12 -25.37018 -54.31457 10273 ft 339 kts 268°
2026-04-21 03:12 -25.37173 -54.34062 9759 ft 337 kts 268°
2026-04-21 03:12 -25.37326 -54.36638 9206 ft 335 kts 268°
2026-04-21 03:13 -25.37478 -54.39225 8652 ft 332 kts 268°
2026-04-21 03:13 -25.37625 -54.41717 8121 ft 323 kts 268°
2026-04-21 03:13 -25.37770 -54.44176 7590 ft 316 kts 268°
2026-04-21 03:13 -25.37910 -54.46579 7076 ft 309 kts 268°
2026-04-21 03:14 -25.38047 -54.48927 6558 ft 302 kts 268°
2026-04-21 03:14 -25.38179 -54.51202 6029 ft 296 kts 268°
2026-04-21 03:14 -25.38311 -54.53448 5497 ft 291 kts 268°
2026-04-21 03:14 -25.38440 -54.55652 4972 ft 286 kts 269°
2026-04-21 03:15 -25.38569 -54.57855 4431 ft 283 kts 269°
2026-04-21 03:15 -25.38694 -54.60000 4068 ft 273 kts 269°
2026-04-21 03:15 -25.38545 -54.61966 3963 ft 247 kts 294°
2026-04-21 03:15 -25.37653 -54.63435 3956 ft 215 kts 326°
2026-04-21 03:16 -25.36387 -54.64001 3956 ft 191 kts
2026-04-21 03:16 -25.35150 -54.63663 3984 ft 175 kts 26°
2026-04-21 03:16 -25.34209 -54.62946 3951 ft 158 kts 39°
2026-04-21 03:16 -25.33504 -54.62088 3944 ft 143 kts 51°
2026-04-21 03:17 -25.33012 -54.61098 3946 ft 150 kts 65°
2026-04-21 03:17 -25.32802 -54.59970 3949 ft 152 kts 82°
2026-04-21 03:17 -25.32737 -54.58814 3946 ft 152 kts 81°
2026-04-21 03:17 -25.32656 -54.57647 3943 ft 152 kts 80°
2026-04-21 03:18 -25.32602 -54.56474 3931 ft 155 kts 91°
2026-04-21 03:18 -25.32859 -54.55324 3938 ft 160 kts 107°
2026-04-21 03:18 -25.33461 -54.54272 3943 ft 165 kts 130°
2026-04-21 03:18 -25.34403 -54.53540 3946 ft 169 kts 155°
2026-04-21 03:19 -25.35556 -54.53287 3949 ft 172 kts 181°
2026-04-21 03:19 -25.36723 -54.53573 3952 ft 172 kts 207°
2026-04-21 03:19 -25.37673 -54.54334 3954 ft 170 kts 232°
2026-04-21 03:19 -25.38272 -54.55425 3954 ft 165 kts 256°
2026-04-21 03:20 -25.38458 -54.56636 3888 ft 158 kts 274°
2026-04-21 03:20 -25.38514 -54.57861 3653 ft 160 kts 272°
2026-04-21 03:20 -25.38596 -54.59095 3411 ft 161 kts 271°
2026-04-21 03:20 -25.38716 -54.60325 3189 ft 163 kts 259°
2026-04-21 03:21 -25.39376 -54.61310 2990 ft 164 kts 210°
2026-04-21 03:21 -25.40492 -54.61557 3016 ft 170 kts 177°
2026-04-21 03:21 -25.41659 -54.61541 2966 ft 163 kts 179°
2026-04-21 03:21 -25.42777 -54.61639 2958 ft 156 kts 187°
2026-04-21 03:22 -25.43826 -54.61883 2966 ft 154 kts 194°
2026-04-21 03:22 -25.44838 -54.62220 2970 ft 152 kts 198°
2026-04-21 03:22 -25.45840 -54.62607 2972 ft 153 kts 200°
2026-04-21 03:22 -25.46843 -54.63023 2969 ft 153 kts 201°
2026-04-21 03:23 -25.47847 -54.63255 2967 ft 152 kts 168°
2026-04-21 03:23 -25.48727 -54.62679 2980 ft 141 kts 122°
2026-04-21 03:23 -25.49369 -54.61840 2974 ft 143 kts 126°
2026-04-21 03:23 -25.50034 -54.61009 2979 ft 144 kts 124°
2026-04-21 03:24 -25.50684 -54.60173 2982 ft 144 kts 124°
2026-04-21 03:24 -25.51342 -54.59328 2889 ft 145 kts 124°
2026-04-21 03:24 -25.51979 -54.58511 2725 ft 141 kts 124°
2026-04-21 03:24 -25.52621 -54.57682 2540 ft 142 kts 125°
2026-04-21 03:25 -25.53259 -54.56863 2366 ft 141 kts 125°
2026-04-21 03:25 -25.53896 -54.56044 2185 ft 139 kts 126°
2026-04-21 03:25 -25.54524 -54.55235 2017 ft 137 kts 126°
2026-04-21 03:25 -25.55143 -54.54436 1843 ft 136 kts 127°
2026-04-21 03:26 -25.55752 -54.53655 1661 ft 135 kts 128°
2026-04-21 03:26 -25.56350 -54.52848 1483 ft 136 kts 128°
2026-04-21 03:26 -25.56944 -54.52043 1334 ft 135 kts 132°
2026-04-21 03:26 -25.57571 -54.51262 1211 ft 135 kts 132°
2026-04-21 03:27 -25.58190 -54.50479 1033 ft 134 kts 134°
2026-04-21 03:27 -25.58799 -54.49711 850 ft 133 kts 133°
2026-04-21 03:27 -25.59402 -54.48968 802 ft 124 kts 131°
2026-04-21 03:27 -25.60001 -54.48032 949 ft 169 kts 122°
2026-04-21 03:28 -25.60582 -54.46818 1497 ft 187 kts 118°
2026-04-21 03:28 -25.61363 -54.45690 2176 ft 189 kts 133°
2026-04-21 03:28 -25.62387 -54.44659 2430 ft 211 kts 135°
2026-04-21 03:28 -25.63505 -54.43512 2801 ft 225 kts 133°
2026-04-21 03:29 -25.64590 -54.42288 2980 ft 224 kts 130°
2026-04-21 03:29 -25.65641 -54.41008 3007 ft 220 kts 128°
2026-04-21 03:29 -25.66608 -54.39780 3000 ft 201 kts 127°
2026-04-21 03:29 -25.67472 -54.38667 2997 ft 181 kts 126°
2026-04-21 03:30 -25.68245 -54.37662 2997 ft 163 kts 126°
2026-04-21 03:30 -25.68719 -54.37044 3002 ft 159 kts 125°
2026-04-21 03:30 -25.69423 -54.36079 2988 ft 156 kts 114°
2026-04-21 03:30 -25.69576 -54.34983 3009 ft 145 kts 71°
2026-04-21 03:31 -25.69060 -54.34093 2998 ft 137 kts 33°
2026-04-21 03:31 -25.68162 -54.33788 2999 ft 138 kts 357°
2026-04-21 03:31 -25.67323 -54.34160 3004 ft 143 kts 323°
2026-04-21 03:31 -25.66552 -54.34908 2997 ft 142 kts 324°
2026-04-21 03:32 -25.65791 -54.35599 2997 ft 142 kts 325°
2026-04-21 03:32 -25.65013 -54.36282 2999 ft 142 kts 326°
2026-04-21 03:32 -25.64248 -54.36951 3001 ft 141 kts 326°
2026-04-21 03:32 -25.63472 -54.37633 3003 ft 141 kts 325°
2026-04-21 03:33 -25.62698 -54.38317 3005 ft 141 kts 325°
2026-04-21 03:33 -25.61944 -54.38985 3006 ft 140 kts 326°
2026-04-21 03:33 -25.61107 -54.39721 3055 ft 174 kts 325°
2026-04-21 03:33 -25.60113 -54.40597 3005 ft 183 kts 324°
2026-04-21 03:34 -25.59115 -54.41490 3007 ft 185 kts 324°
2026-04-21 03:34 -25.58109 -54.42391 3004 ft 185 kts 324°
2026-04-21 03:34 -25.57104 -54.43287 3010 ft 185 kts 324°
2026-04-21 03:34 -25.56106 -54.44177 3009 ft 186 kts 324°
2026-04-21 03:35 -25.55045 -54.45116 3017 ft 208 kts 324°
2026-04-21 03:35 -25.53905 -54.46125 3005 ft 210 kts 324°
2026-04-21 03:35 -25.52763 -54.47142 3006 ft 211 kts 324°
2026-04-21 03:35 -25.51623 -54.48158 3007 ft 211 kts 324°
2026-04-21 03:36 -25.50471 -54.49184 3005 ft 211 kts 324°
2026-04-21 03:36 -25.49322 -54.50205 3003 ft 211 kts 324°
2026-04-21 03:36 -25.48193 -54.51207 2998 ft 206 kts 324°
2026-04-21 03:36 -25.47122 -54.52160 2991 ft 188 kts 324°
2026-04-21 03:37 -25.46132 -54.53040 2993 ft 176 kts 325°
2026-04-21 03:37 -25.45225 -54.53848 2982 ft 157 kts 325°
2026-04-21 03:37 -25.44423 -54.54564 2976 ft 139 kts 326°
2026-04-21 03:37 -25.43661 -54.55236 2986 ft 144 kts 326°
2026-04-21 03:38 -25.42887 -54.55916 2980 ft 141 kts 326°
2026-04-21 03:38 -25.42115 -54.56595 2978 ft 142 kts 326°
2026-04-21 03:38 -25.41344 -54.57278 2977 ft 141 kts 326°
2026-04-21 03:38 -25.40582 -54.57955 2977 ft 141 kts 326°
2026-04-21 03:39 -25.39999 -54.58838 2976 ft 150 kts 288°
2026-04-21 03:39 -25.40144 -54.59992 2965 ft 162 kts 240°
2026-04-21 03:39 -25.41038 -54.60753 2985 ft 167 kts 201°
2026-04-21 03:39 -25.42116 -54.61174 2988 ft 158 kts 198°
2026-04-21 03:40 -25.43135 -54.61548 2974 ft 153 kts 198°
2026-04-21 03:40 -25.44146 -54.61933 2979 ft 154 kts 199°
2026-04-21 03:40 -25.45158 -54.62332 2980 ft 153 kts 199°
2026-04-21 03:40 -25.46158 -54.62740 2979 ft 153 kts 201°
2026-04-21 03:41 -25.47160 -54.63077 2978 ft 152 kts 184°
2026-04-21 03:41 -25.48189 -54.62923 2988 ft 150 kts 154°
2026-04-21 03:41 -25.49033 -54.62289 2994 ft 145 kts 130°
2026-04-21 03:41 -25.49705 -54.61459 2989 ft 143 kts 122°
2026-04-21 03:42 -25.50323 -54.60636 2992 ft 144 kts 124°
2026-04-21 03:42 -25.50961 -54.59819 2976 ft 144 kts 124°
2026-04-21 03:42 -25.51630 -54.58958 2808 ft 141 kts 124°
2026-04-21 03:42 -25.52271 -54.58133 2638 ft 141 kts 124°
2026-04-21 03:43 -25.52902 -54.57322 2470 ft 141 kts 125°
2026-04-21 03:43 -25.53547 -54.56492 2290 ft 140 kts 125°
2026-04-21 03:43 -25.54177 -54.55682 2115 ft 137 kts 126°
2026-04-21 03:43 -25.54793 -54.54889 1933 ft 136 kts 126°
2026-04-21 03:44 -25.55420 -54.54082 1761 ft 135 kts 127°
2026-04-21 03:44 -25.56004 -54.53329 1574 ft 134 kts 128°
2026-04-21 03:44 -25.56618 -54.52541 1412 ft 134 kts 131°
2026-04-21 03:44 -25.57228 -54.51763 1301 ft 134 kts 133°
2026-04-21 03:45 -25.57828 -54.50967 1186 ft 135 kts 129°
2026-04-21 03:45 -25.58438 -54.50179 1004 ft 135 kts 133°
2026-04-21 03:45 -25.59048 -54.49418 834 ft 132 kts 132°
2026-04-21 03:45 -25.59621 -54.48687 798 ft 88 kts 131°
2026-04-21 03:46 -25.59770 -54.48500 795 ft 18 kts 137°
2026-04-21 03:46 -25.59821 -54.48509 795 ft 16 kts 225°
2026-04-21 03:46 -25.59835 -54.48520 797 ft 0 kts 214°
2026-04-21 03:48 -25.59850 -54.48541 797 ft 7 kts 255°
2026-04-21 03:48 -25.59821 -54.48597 797 ft 10 kts 309°
2026-04-21 03:49 -25.59771 -54.48662 798 ft 9 kts 310°
2026-04-21 03:49 -25.59724 -54.48722 798 ft 11 kts 311°
2026-04-21 03:49 -25.59679 -54.48779 798 ft 10 kts 311°
2026-04-21 03:49 -25.59647 -54.48819 798 ft 0 kts 311°
2026-04-21 03:50 -25.59637 -54.48831 798 ft 0 kts 312°
2026-04-21 03:50 -25.59635 -54.48833 798 ft 2 kts 312°
2026-04-21 03:50 -25.59633 -54.48845 798 ft 1 kts 276°
2026-04-21 03:51 -25.59635 -54.48848 798 ft 1 kts 251°
2026-04-21 03:51 -25.59636 -54.48850 798 ft 0 kts 249°
2026-04-21 03:51 -25.59642 -54.48859 798 ft 2 kts 230°
2026-04-21 03:51 -25.59657 -54.48874 798 ft 4 kts 220°
2026-04-21 03:52 -25.59669 -54.48885 798 ft 1 kts 221°
2026-04-21 03:52 -25.59672 -54.48888 798 ft 0 kts 220°